Regional Weather Roundup
Issued by NWS

Home | Current Version | Previous Version | Graphics & Text | Print | Product List | Glossary On
Versions: 1 2 3 4 5 6 7 8 9 10 11 12 13 14 15 16 17 18 19 20 21 22 23 24 25 26 27 28 29 30 31 32 33 34 35 36 37 38 39 40 41 42 43 44 45 46 47 48 49 50
000
ASUS43 KFSD 191702
RWRSD

WEATHER ROUNDUP FOR SOUTH DAKOTA
NATIONAL WEATHER SERVICE SIOUX FALLS SD
1200 PM CDT THU APR 19 2018

NOTE: "FAIR" INDICATES FEW OR NO CLOUDS BELOW 12,000 FEET WITH NO
SIGNIFICANT WEATHER AND/OR OBSTRUCTIONS TO VISIBILITY.


SDZ001>005-009-010-012>017-191800-
NORTHWEST AND NORTH CENTRAL SOUTH DAKOTA

CITY           SKY/WX    TMP DP  RH WIND       PRES   REMARKS
BUFFALO          N/A     53  32  44 SE14G25   30.23F
FAITH            N/A     47  36  65 S12G18    30.35F
MOBRIDGE       SUNNY     49  30  48 SE6       30.40S
$$

SDZ012>016-024>037-041>051-057-063-072>074-191800-
SOUTHWEST AND SOUTH CENTRAL SOUTH DAKOTA

CITY           SKY/WX    TMP DP  RH WIND       PRES   REMARKS
RAPID CTY ARPT SUNNY     52  30  43 SE17G23   30.31F
PIERRE         SUNNY     46  33  60 CALM      30.42F
CUSTER         MOSUNNY   43  23  45 S12G20    30.28F
ELLSWORTH AFB  SUNNY     52  30  42 SE18G26   30.30
PHILIP         SUNNY     51  33  50 S12       30.37F
PINE RIDGE     SUNNY     54  32  43 S12       30.32F
SPEARFISH      FAIR      55  23  28 SE10G18   30.25F
WINNER         FAIR      42  29  59 S7        30.45S
$$

SDZ004>011-016>023-039-040-191800-
NORTHEAST SOUTH DAKOTA

CITY           SKY/WX    TMP DP  RH WIND       PRES   REMARKS
ABERDEEN       SUNNY     52  33  48 SW10      30.46S
WATERTOWN      SUNNY     46  29  51 S9        30.46R
BROOKINGS      SUNNY     44  26  49 SW6       30.48R
SISSETON         N/A     51  33  50 NW8       30.45R
$$

SDZ017-020-022-023-036>040-048>070-191800-
SOUTHEAST SOUTH DAKOTA

CITY           SKY/WX    TMP DP  RH WIND       PRES   REMARKS
SIOUX FALLS    MOSUNNY   41  24  51 E5        30.50R
HURON          SUNNY     40  32  73 S7        30.49R
CHAMBERLAIN    SUNNY     44  35  70 S7        30.47F
MITCHELL       SUNNY     40  32  73 W5        30.50R
YANKTON        SUNNY     43  28  55 VRB3      30.50R
$$

ABBREVIATIONS USED IN REMARKS
   TC - TEMPERATURE IN CELSIUS
  WCI - WIND CHILL INDEX
   HX - HEAT INDEX
  VSB - VISIBILITY




USA.gov is the U.S. government's official web portal to all federal, state and local government web resources and services.